Home   Weather   Pretoria   Past weeks

Flag for South Africa Past Weather in Pretoria, South Africa — Yesterday and Last 2 Weeks

Now
81 °F

Warm.


Feels Like: 81 °F
Forecast: 64 / 92 °F
Wind: 9 mph from North

Location: Waterkloof Lmb

Current Time: Dec 3, 2016 at 1:43:48 pm

Latest Report: Dec 3, 2016 at 1:00 pm


Visibility: N/A

Pressure: 30.18 "Hg (25.92 "Hg at 1338m altitude)

Humidity: 45%

Dew Point: 57 °F

Location of PretoriaLocation

Past Weather in Pretoria — Graph

°F

Pretoria Temperature Yesterday

Maximum temperature yesterday: 86 °F (at 3:00 pm)
Minimum temperature yesterday: 63 °F (at 5:00 am)
Average temperature yesterday: 74 °F

High & Low Weather Summary for the Past Weeks

 TemperatureHumidityPressure
High93 °F (Nov 29, 3:00 pm)88% (Nov 20, 2:00 am)30.33 "Hg (Nov 20, 2:00 am)
Low57 °F (Nov 20, 2:00 am)12% (Nov 18, 1:00 pm)30.01 "Hg (Dec 1, 5:00 pm)
Average72 °F58%30.18 "Hg
* Reported Nov 18 12:00 pm — Dec 3 12:00 pm, Pretoria, Weather by CustomWeather, © 2016

Note: Actual official high and low records may vary slightly from our data, if they occured in-between our weather recording intervals... More about our weather records

Advertising

Pretoria Weather History for the Previous 24 Hours

Scroll right to see more
 ConditionsComfort  
Time TempWeatherWind HumidityBarometerVisibility
12:00 pm
Sat, Dec 3
79 °FWarm.10 mph48%30.18 "HgN/A
11:00 am77 °FWarm.13 mph47%30.21 "HgN/A
10:00 am73 °FMild.12 mph53%30.24 "HgN/A
9:00 am70 °FMild.13 mph60%30.24 "HgN/A
8:00 am68 °FMild.12 mph60%30.24 "HgN/A
7:00 am64 °FMild.16 mph68%30.24 "HgN/A
6:00 am63 °FMild.10 mph73%30.24 "HgN/A
5:00 am63 °FMild.10 mph73%30.21 "HgN/A
3:00 am64 °FMild.10 mph68%30.18 "HgN/A
2:00 am64 °FMild.8 mph68%30.18 "HgN/A
1:00 am66 °FMild.10 mph64%30.18 "HgN/A
12:00 am68 °FMild.12 mph60%30.18 "HgN/A
11:00 pm
Fri, Dec 2
70 °FMild.14 mph57%30.18 "HgN/A
10:00 pm72 °FMild.9 mph57%30.18 "HgN/A
9:00 pm73 °FMild.13 mph53%30.12 "HgN/A
6:00 pm82 °FWarm.9 mph45%30.07 "HgN/A
5:00 pm86 °FPleasantly warm.6 mph38%30.07 "HgN/A
4:00 pm86 °FPleasantly warm.5 mph38%30.07 "HgN/A
3:00 pm86 °FPleasantly warm.7 mph35%30.09 "HgN/A
2:00 pm82 °FPleasantly warm.6 mph40%30.12 "HgN/A
1:00 pm82 °FWarm.8 mph45%30.12 "HgN/A
Weather by CustomWeather, © 2016

See weather overviewHow to use our weather pages